Location: Central Falls
(41.8900°N, 71.3929°W)
Time: 11:58:49
(UTC+00:00)

Altair - Pass Details

Date: 11 December 2023
Orbit: 1501 x 1682 km, 47.2° (Epoch: 20 February)

Event Time Altitude Azimuth Distance (km) Brightness Sun altitude
Rises 10:27:09 0° 218° (SW) 4,892 9.9 -17.2°
Reaches altitude 10° 10:30:25 10° 214° (SW) 3,890 9.4 -16.6°
Maximum altitude 10:39:58 54° 141° (SE) 1,892 8.3 -14.9°
Drops below altitude 10° 10:49:11 10° 67° (ENE) 3,767 10.3 -13.3°
Sets 10:52:17 0° 63° (ENE) 4,729 10.8 -12.7°
